Погода в Усть-Большерецке

Россия / Камчатский край     52°49′26″N   156°16′51″E
темп.,
°C
ветер,
м/с
пор.,
м/с
влажн.,
%
обл.,
%
осадки,
мм/ч
давл.,
гПа
погр.,
м
28 ноября, вс
вс2800:00−7с9108343 0.0 1002417
03:00−9с10127927 0.0 1002433
06:00−9с10147132 0.0 1004503
09:00−9с1218620 0.0 1005634
12:00−7с1217530 0.0 1006902
15:00−5ссз1217556 0.0 10071142
18:00−6с1015618 0.0 1008639
21:00−6ссз813595 0.0 1009422
29 ноября, пн
пн2900:00−6ссз610625 0.0 1009235
03:00−7ссв45717 0.0 1009107
06:00−9св336789 0.0 101066
09:00−9всв226937 0.0 101164
12:00−6юв338166 0.1 1012118
15:00−4в228153 0.1 1012131
18:00−6вюв228950 0.1 101259
21:00−6юв4591100 0.0 1012109
30 ноября, вт
вт3000:00−6юв4686100 0.0 1010141
03:00−5вюв4677100 0.0 1008123
06:00−5св5788100 0.7 1005170
09:00−5св7996100 2.4 1004303
12:00−2с7118399 4.4 1007785
15:00−2сз121578100 0.9 10121156
18:00−3сз101462100 1.1 1015481
21:00−3сз91262100 0.3 1018370
1 декабря, ср
ср100:00−3зсз71061100 0.4 1020223
03:00−3з4665100 0.2 1021130
06:00−3юз4570100 0.6 1022119
09:00−2ююз4774100 0.5 1022142
12:00−3ююв6882100 0.8 1023312
15:00−2юв71081100 0.1 1021381
18:00−2вюв81382100 0.1 1016366
21:00+1юв152176100 1.4 1011567
2 декабря, чт
чт200:00+2юв152289100 4.6 1005493
03:00+4юв152488100 3.5 1000522
06:00+5юв152591100 5.8 995570
09:00+6юв172790100 5.9 987711
12:00+8ююв162684100 9.1 984931
15:00+4ююз142280100 0.9 982821
18:00+1ююз131995100 1.8 984850
21:00+2ююз16227096 0.1 9831159